DW9210 Weather Reports


time (UTC)temp
F
wind
direction
speed
knots
gust
knots
rain 1hr
in
rain 24hr
in
rain mn
in
humidity
%
barometer
mb
20260510222524 74 351 2.6 6.1 0.00 0.00 0.00 48 1014.4
20260510222003 75 329 2.6 6.1 0.00 0.00 0.00 49 1014.4
20260510221503 75 322 2.6 5.2 0.00 0.00 0.00 55 1014.3
20260510221003 75 320 2.6 5.2 0.00 0.00 0.00 48 1014.3
20260510220503 75 328 2.6 5.2 0.00 0.00 0.00 53 1014.2
20260510220003 75 330 2.6 6.1 0.00 0.00 0.00 52 1014.2
20260510215503 74 310 2.6 6.1 0.00 0.00 0.00 51 1014.3
20260510215003 74 292 2.6 6.1 0.00 0.00 0.00 57 1014.3
20260510214503 73 285 2.6 6.1 0.00 0.00 0.00 54 1014.4
20260510214003 74 292 2.6 5.2 0.00 0.00 0.00 55 1014.3
20260510213503 74 301 3.5 4.3 0.00 0.00 0.00 55 1014.3
20260510213003 74 302 3.5 5.2 0.00 0.00 0.00 59 1014.3
20260510212524 74 302 2.6 5.2 0.00 0.00 0.00 58 1014.3
20260510212003 75 296 3.5 7.0 0.00 0.00 0.00 55 1014.2
20260510211503 76 302 3.5 7.0 0.00 0.00 0.00 54 1014.2
20260510211003 77 309 3.5 7.0 0.00 0.00 0.00 55 1014.1
20260510210503 77 314 3.5 7.0 0.00 0.00 0.00 55 1014.1
20260510210003 76 325 2.6 6.1 0.00 0.00 0.00 58 1014.0
20260510205503 76 330 1.7 5.2 0.00 0.00 0.00 54 1014.0
20260510205003 75 323 2.6 7.0 0.00 0.00 0.00 54 1014.0
20260510204503 75 310 3.5 7.8 0.00 0.00 0.00 55 1014.0
20260510204003 75 319 3.5 7.8 0.00 0.00 0.00 60 1014.1
20260510203503 75 341 1.7 5.2 0.00 0.00 0.00 59 1014.0
20260510203003 74 331 3.5 7.8 0.00 0.00 0.00 59 1014.0
20260510202503 75 317 3.5 7.8 0.00 0.00 0.00 56 1013.9
20260510202003 76 291 3.5 7.0 0.00 0.00 0.00 55 1013.9
20260510201503 77 287 3.5 7.0 0.00 0.00 0.00 56 1013.9
20260510201003 77 286 3.5 6.1 0.00 0.00 0.00 55 1013.9
20260510200503 77 270 3.5 6.1 0.00 0.00 0.00 56 1013.8
20260510200003 76 288 2.6 6.1 0.00 0.00 0.00 56 1013.9
20260510195503 76 317 2.6 6.1 0.00 0.00 0.00 61 1014.0
20260510195003 75 315 2.6 6.1 0.00 0.00 0.00 62 1014.0
20260510194503 75 314 2.6 5.2 0.00 0.00 0.00 59 1013.9
20260510194003 74 300 3.5 6.1 0.00 0.00 0.00 60 1013.9
20260510193503 74 309 2.6 6.1 0.00 0.00 0.00 61 1014.0
20260510193003 74 350 1.7 4.3 0.00 0.00 0.00 59 1014.0
20260510192503 75 334 2.6 6.1 0.00 0.00 0.00 57 1014.0
20260510192003 75 330 3.5 7.8 0.00 0.00 0.00 60 1014.0
20260510191504 75 295 2.6 7.8 0.00 0.00 0.00 62 1013.9
20260510191003 76 268 3.5 7.8 0.00 0.00 0.00 59 1013.9
20260510190503 76 279 3.5 7.0 0.00 0.00 0.00 56 1013.9
20260510190003 76 290 3.5 7.0 0.00 0.00 0.00 62 1014.0
20260510185503 75 279 4.3 7.8 0.00 0.00 0.00 62 1014.0
20260510185003 75 265 4.3 8.7 0.00 0.00 0.00 62 1014.0
20260510184503 76 264 4.3 9.6 0.00 0.00 0.00 56 1014.0
20260510184003 76 268 4.3 9.6 0.00 0.00 0.00 60 1014.1
20260510183503 75 268 3.5 9.6 0.00 0.00 0.00 65 1014.1
20260510183003 75 239 2.6 7.8 0.00 0.00 0.00 62 1014.1
20260510182503 76 248 4.3 10.4 0.00 0.00 0.00 55 1014.0
20260510182024 76 257 4.3 10.4 0.00 0.00 0.00 58 1014.1
20260510181503 76 258 3.5 8.7 0.00 0.00 0.00 59 1014.0
20260510181024 76 266 3.5 8.7 0.00 0.00 0.00 57 1013.9
20260510180503 76 277 4.3 8.7 0.00 0.00 0.00 56 1014.0
20260510180003 76 285 3.5 8.7 0.00 0.00 0.00 60 1013.9
20260510175503 76 276 3.5 7.8 0.00 0.00 0.00 58 1013.8
20260510175003 76 283 3.5 7.8 0.00 0.00 0.00 64 1013.9
20260510174503 75 267 3.5 11.3 0.00 0.00 0.00 60 1013.9
20260510174024 75 240 3.5 11.3 0.00 0.00 0.00 59 1014.0
20260510173524 74 261 3.5 11.3 0.00 0.00 0.00 63 1014.0
20260510173003 74 287 3.5 6.1 0.00 0.00 0.00 67 1014.2
20260510172503 74 286 3.5 7.0 0.00 0.00 0.00 61 1014.3
20260510172024 74 276 2.6 7.0 0.00 0.00 0.00 67 1014.3
20260510171503 73 259 2.6 6.1 0.00 0.00 0.00 62 1014.3
20260510171024 73 264 3.5 8.7 0.00 0.00 0.00 59 1014.3
20260510170503 73 283 3.5 8.7 0.00 0.00 0.00 66 1014.3
20260510170003 73 288 3.5 7.0 0.00 0.00 0.00 67 1014.2
20260510165524 73 270 3.5 7.0 0.00 0.00 0.00 65 1014.2
20260510165003 73 269 3.5 7.8 0.00 0.00 0.00 66 1014.2
20260510164503 73 271 3.5 8.7 0.00 0.00 0.00 68 1014.2
20260510164003 73 267 3.5 8.7 0.00 0.00 0.00 70 1014.2
20260510163503 73 265 2.6 7.8 0.00 0.00 0.00 66 1014.2
20260510163003 73 270 3.5 7.8 0.00 0.00 0.00 65 1014.1
20260510162503 72 279 3.5 7.0 0.00 0.00 0.00 67 1014.1
20260510162003 72 278 2.6 6.1 0.00 0.00 0.00 69 1014.1
20260510161503 72 269 3.5 7.0 0.00 0.00 0.00 69 1014.0
20260510161003 72 272 3.5 7.0 0.00 0.00 0.00 64 1014.0
20260510160503 72 281 3.5 7.0 0.00 0.00 0.00 71 1014.0
20260510160024 72 275 3.5 7.0 0.00 0.00 0.00 70 1014.1
20260510155503 72 270 3.5 7.8 0.00 0.00 0.00 67 1014.1
20260510155024 72 271 3.5 7.8 0.00 0.00 0.00 69 1014.1
20260510154503 72 268 3.5 7.8 0.00 0.00 0.00 65 1014.1
20260510154003 72 268 3.5 7.0 0.00 0.00 0.00 70 1014.0
20260510153503 72 258 3.5 7.0 0.00 0.00 0.00 72 1014.0
20260510153003 71 244 2.6 6.1 0.00 0.00 0.00 67 1014.1
20260510152503 71 252 2.6 7.0 0.00 0.00 0.00 66 1014.0
20260510152003 71 255 1.7 7.0 0.00 0.00 0.00 69 1014.0
20260510151503 71 232 2.6 6.1 0.00 0.00 0.00 68 1014.0
20260510151003 71 226 2.6 7.8 0.00 0.00 0.00 64 1013.9
20260510150503 70 237 3.5 8.7 0.00 0.00 0.00 70 1013.8
20260510150024 70 238 4.3 8.7 0.00 0.00 0.00 67 1013.8
20260510145503 69 248 4.3 7.8 0.00 0.00 0.00 70 1013.7
20260510145003 69 248 4.3 7.8 0.00 0.00 0.00 68 1013.7
20260510144524 69 241 4.3 8.7 0.00 0.00 0.00 66 1013.7
20260510144003 69 232 3.5 8.7 0.00 0.00 0.00 67 1013.6
20260510143503 69 226 4.3 8.7 0.00 0.00 0.00 67 1013.6
20260510143003 68 232 3.5 8.7 0.00 0.00 0.00 68 1013.6
20260510142503 68 239 2.6 8.7 0.00 0.00 0.00 69 1013.5
20260510142024 67 244 2.6 6.1 0.00 0.00 0.00 70 1013.5
20260510141503 67 237 1.7 5.2 0.00 0.00 0.00 71 1013.5
20260510141003 66 234 2.6 7.0 0.00 0.00 0.00 73 1013.5
20260510140524 66 232 2.6 7.0 0.00 0.00 0.00 72 1013.5
20260510140003 66 233 1.7 7.0 0.00 0.00 0.00 71 1013.4
20260510135503 66 233 0.9 5.2 0.00 0.00 0.00 72 1013.3
20260510135003 65 226 0.9 3.5 0.00 0.00 0.00 73 1013.4
20260510134503 65 226 0.9 3.5 0.00 0.00 0.00 74 1013.4
20260510134003 65 220 1.7 5.2 0.00 0.00 0.00 76 1013.3
20260510133503 64 225 1.7 5.2 0.00 0.00 0.00 74 1013.3
20260510133003 64 239 1.7 5.2 0.00 0.00 0.00 74 1013.3
20260510132503 64 241 1.7 5.2 0.00 0.00 0.00 75 1013.3
20260510132003 63 231 1.7 4.3 0.00 0.00 0.00 75 1013.2
20260510131503 63 224 1.7 4.3 0.00 0.00 0.00 77 1013.1
20260510131003 63 226 1.7 4.3 0.00 0.00 0.00 77 1013.0
20260510130524 62 221 1.7 4.3 0.00 0.00 0.00 77 1013.1
20260510130003 62 206 1.7 5.2 0.00 0.00 0.00 78 1012.9
20260510125524 62 206 1.7 5.2 0.00 0.00 0.00 78 1012.7
20260510125024 61 205 1.7 4.3 0.00 0.00 0.00 79 1012.6
20260510124503 61 201 1.7 4.3 0.00 0.00 0.00 81 1012.6
20260510124003 60 202 0.9 3.5 0.00 0.00 0.00 80 1012.6
20260510123503 60 207 0.9 4.3 0.00 0.00 0.00 80 1012.6
20260510123003 60 208 0.9 5.2 0.00 0.00 0.00 81 1012.6
20260510122503 60 202 1.7 5.2 0.00 0.00 0.00 81 1012.7
20260510122003 59 202 1.7 5.2 0.00 0.00 0.00 82 1012.6
20260510121503 59 202 0.9 3.5 0.00 0.00 0.00 81 1012.6
20260510121003 59 203 0.9 3.5 0.00 0.00 0.00 82 1012.6
20260510120503 59 201 1.7 4.3 0.00 0.00 0.00 82 1012.6
20260510120003 59 198 1.7 4.3 0.00 0.00 0.00 82 1012.5
20260510115503 58 203 1.7 3.5 0.00 0.00 0.00 83 1012.5
20260510115003 58 206 1.7 5.2 0.00 0.00 0.00 83 1012.4
20260510114503 58 209 1.7 5.2 0.00 0.00 0.00 84 1012.4
20260510114003 58 204 1.7 6.1 0.00 0.00 0.00 84 1012.4
20260510113503 57 208 1.7 6.1 0.00 0.00 0.00 85 1012.3
20260510113024 57 223 1.7 6.1 0.00 0.00 0.00 86 1012.4
20260510112524 56 218 1.7 6.1 0.00 0.00 0.00 87 1012.4
20260510112003 56 210 0.9 3.5 0.00 0.00 0.00 87 1012.2
20260510111503 56 217 0.9 2.6 0.00 0.00 0.00 88 1012.2
20260510111024 56 213 0.9 2.6 0.00 0.00 0.00 88 1012.2
20260510110503 55 210 0.9 4.3 0.00 0.00 0.00 89 1012.1
20260510110003 55 220 0.9 4.3 0.00 0.00 0.00 89 1012.1
20260510105503 55 220 0.9 4.3 0.00 0.00 0.00 90 1012.0
20260510105003 54 221 0.9 3.5 0.00 0.00 0.00 91 1012.0
20260510104503 54 234 0.9 3.5 0.00 0.00 0.00 92 1011.9
20260510104003 54 233 1.7 5.2 0.00 0.00 0.00 93 1011.9
20260510103503 53 228 0.9 5.2 0.00 0.00 0.00 93 1011.7
20260510103003 53 213 0.9 2.6 0.00 0.00 0.00 93 1011.5
20260510102503 53 204 0.9 2.6 0.00 0.00 0.00 94 1011.5
20260510102024 53 197 0.0 0.9 0.00 0.00 0.00 93 1011.4
20260510101503 53 200 0.0 0.9 0.00 0.00 0.00 93 1011.2
20260510101024 53 198 0.0 0.9 0.00 0.00 0.00 93 1011.2
20260510100503 53 188 0.0 0.9 0.00 0.00 0.00 94 1011.2
20260510100003 53 181 0.0 0.9 0.00 0.00 0.00 94 1011.1
20260510095503 53 185 0.0 1.7 0.00 0.00 0.00 93 1011.0
20260510095003 53 184 0.0 1.7 0.00 0.00 0.00 93 1011.0
20260510094503 53 191 0.0 0.9 0.00 0.00 0.00 93 1011.0
20260510094003 53 209 0.0 0.9 0.00 0.00 0.00 94 1010.9
20260510093524 53 235 0.0 0.9 0.00 0.00 0.00 93 1010.9
20260510093003 53 0 0.0 0.0 0.00 0.00 0.00 93 1010.8
20260510092524 53 0 0.0 0.0 0.00 0.00 0.00 94 1010.9
20260510092003 53 0 0.0 0.0 0.00 0.00 0.00 93 1010.8
20260510091503 53 236 0.0 1.7 0.00 0.00 0.00 93 1010.7
20260510091024 52 230 0.0 1.7 0.00 0.00 0.00 94 1010.7
20260510090503 52 234 0.0 1.7 0.00 0.00 0.00 94 1010.7
20260510090003 52 237 0.0 1.7 0.00 0.00 0.00 94 1010.7
20260510085503 52 239 0.0 1.7 0.00 0.00 0.00 93 1010.8
20260510085003 52 244 0.0 1.7 0.00 0.00 0.00 93 1010.7
20260510084503 52 241 0.0 1.7 0.00 0.00 0.00 93 1010.8
20260510084003 52 244 0.0 1.7 0.00 0.00 0.00 93 1010.8
20260510083503 53 254 0.0 1.7 0.00 0.00 0.00 93 1010.8
20260510083003 53 256 0.0 1.7 0.00 0.00 0.00 93 1010.6
20260510082524 53 257 0.0 0.9 0.00 0.00 0.00 93 1010.6
20260510082003 53 256 0.0 0.9 0.00 0.00 0.00 93 1010.5
20260510081503 53 236 0.0 0.9 0.00 0.00 0.00 92 1010.3
20260510081003 53 202 0.0 0.9 0.00 0.00 0.00 92 1010.2
20260510080503 53 208 0.0 1.7 0.00 0.00 0.00 91 1010.2
20260510080003 53 215 0.0 1.7 0.00 0.00 0.00 91 1010.1
20260510075503 53 215 0.0 0.9 0.00 0.00 0.00 91 1010.2
20260510075003 53 0 0.0 0.0 0.00 0.00 0.00 91 1010.1
20260510074503 53 211 0.0 0.9 0.00 0.00 0.00 91 1010.1
20260510074003 53 211 0.0 0.9 0.00 0.00 0.00 91 1010.2
20260510073503 53 0 0.0 0.0 0.00 0.00 0.00 90 1010.2
20260510073003 54 0 0.0 0.0 0.00 0.00 0.00 89 1010.1
20260510072503 54 178 0.0 0.9 0.00 0.00 0.00 89 1010.1
20260510072024 54 190 0.0 1.7 0.00 0.00 0.00 88 1010.1
20260510071503 54 197 0.0 1.7 0.00 0.00 0.00 88 1010.1
20260510071024 55 207 0.0 1.7 0.00 0.00 0.00 88 1010.1
20260510070503 55 217 0.9 5.2 0.00 0.00 0.00 88 1010.1
20260510070024 55 222 0.9 5.2 0.00 0.00 0.00 88 1010.1
20260510065503 56 219 0.0 1.7 0.00 0.00 0.00 87 1010.1
20260510065003 56 212 0.9 2.6 0.00 0.00 0.00 86 1010.1
20260510064503 56 207 0.9 2.6 0.00 0.00 0.00 86 1010.1
20260510064003 56 204 0.9 2.6 0.00 0.00 0.00 86 1010.1
20260510063503 57 206 0.9 2.6 0.00 0.00 0.00 86 1010.1
20260510063003 57 207 0.9 3.5 0.00 0.00 0.00 85 1010.1
20260510062503 57 205 0.9 3.5 0.00 0.00 0.00 85 1010.2
20260510062024 58 209 0.9 2.6 0.00 0.00 0.00 85 1010.2
20260510061503 58 213 0.9 2.6 0.00 0.00 0.00 85 1010.2
20260510061003 58 210 0.9 2.6 0.00 0.00 0.00 85 1010.2
20260510060503 58 210 0.9 2.6 0.00 0.00 0.00 84 1010.2
20260510060024 58 215 0.9 3.5 0.00 0.00 0.00 84 1010.2
20260510055524 58 223 0.9 3.5 0.00 0.00 0.00 84 1010.2
20260510055003 58 215 0.9 2.6 0.00 0.00 0.00 84 1010.3
20260510054524 58 207 0.9 2.6 0.00 0.00 0.00 84 1010.3
20260510054003 58 221 0.9 1.7 0.00 0.00 0.00 83 1010.1
20260510053503 58 223 0.9 2.6 0.00 0.00 0.00 82 1010.2
20260510053003 58 219 0.9 2.6 0.00 0.00 0.00 82 1010.2
20260510052524 59 216 0.9 2.6 0.00 0.00 0.00 82 1010.1
20260510052003 59 219 0.9 5.2 0.00 0.00 0.00 82 1010.2
20260510051503 59 220 0.9 5.2 0.00 0.00 0.00 82 1010.2
20260510051003 59 218 0.9 4.3 0.00 0.00 0.00 81 1010.2
20260510050503 59 216 0.9 4.3 0.00 0.00 0.00 81 1010.2
20260510050003 59 216 0.9 3.5 0.00 0.00 0.00 81 1010.2
20260510045503 60 217 0.9 2.6 0.00 0.00 0.00 80 1010.2
20260510045024 60 209 0.9 2.6 0.00 0.00 0.00 80 1010.2
20260510044503 60 211 0.9 2.6 0.00 0.00 0.00 80 1010.3
20260510044003 60 213 1.7 4.3 0.00 0.00 0.00 79 1010.3
20260510043503 60 213 1.7 4.3 0.00 0.00 0.00 79 1010.3
20260510043003 60 215 1.7 3.5 0.00 0.00 0.00 79 1010.2
20260510042503 60 215 0.9 3.5 0.00 0.00 0.00 79 1010.2
20260510042024 60 216 0.9 4.3 0.00 0.00 0.00 79 1010.2
20260510041503 61 218 1.7 4.3 0.00 0.00 0.00 78 1010.3
20260510041003 61 210 1.7 3.5 0.00 0.00 0.00 79 1010.3
20260510040503 61 208 1.7 4.3 0.00 0.00 0.00 78 1010.3
20260510040003 61 216 1.7 4.3 0.00 0.00 0.00 79 1010.4
20260510035503 61 214 1.7 4.3 0.00 0.00 0.00 79 1010.4
20260510035024 61 209 1.7 4.3 0.00 0.00 0.00 79 1010.5
20260510034524 61 205 1.7 4.3 0.00 0.00 0.00 80 1010.5
20260510034003 60 207 1.7 3.5 0.00 0.00 0.00 80 1010.4
20260510033503 60 209 1.7 7.8 0.00 0.00 0.00 80 1010.5
20260510033003 60 205 1.7 7.8 0.00 0.00 0.00 81 1010.5
20260510032503 60 200 1.7 5.2 0.00 0.00 0.00 83 1010.4
20260510032003 59 202 1.7 5.2 0.00 0.00 0.00 84 1010.5
20260510031503 59 199 1.7 4.3 0.00 0.00 0.00 85 1010.3
20260510031003 58 195 0.9 3.5 0.00 0.00 0.00 86 1010.3
20260510030503 58 200 0.9 3.5 0.00 0.00 0.00 87 1010.3
20260510030003 58 199 0.9 5.2 0.00 0.00 0.00 87 1010.2
20260510025503 57 199 0.9 5.2 0.00 0.00 0.00 87 1010.2
20260510025003 58 202 0.9 3.5 0.00 0.00 0.00 87 1010.2
20260510024503 58 205 0.0 3.5 0.00 0.00 0.00 86 1010.1
20260510024003 58 188 0.0 0.9 0.00 0.00 0.00 84 1010.1
20260510023524 59 0 0.0 0.0 0.00 0.00 0.00 85 1010.1
20260510023003 59 0 0.0 0.0 0.00 0.00 0.00 83 1010.0
20260510022503 60 0 0.0 0.0 0.00 0.00 0.00 83 1009.9
20260510022003 60 0 0.0 0.0 0.00 0.00 0.00 82 1009.8
20260510021503 60 0 0.0 0.0 0.00 0.00 0.00 82 1009.7
20260510021003 61 0 0.0 0.0 0.00 0.00 0.00 81 1009.6
20260510020503 61 0 0.0 0.0 0.00 0.00 0.00 81 1009.4
20260510020003 62 179 0.0 0.9 0.00 0.00 0.00 79 1009.4
20260510015503 62 179 0.0 0.9 0.00 0.00 0.00 79 1009.2
20260510015024 62 173 0.0 0.9 0.00 0.00 0.00 78 1009.2
20260510014503 63 173 0.0 0.9 0.00 0.00 0.00 77 1009.0
20260510014003 63 180 0.0 0.9 0.00 0.00 0.00 75 1008.9
20260510013503 64 173 0.0 0.9 0.00 0.00 0.00 75 1008.8
20260510013003 64 168 0.0 0.9 0.00 0.00 0.00 74 1008.7
20260510012503 64 160 0.0 0.9 0.00 0.00 0.00 72 1008.7
20260510012024 65 162 0.0 0.9 0.00 0.00 0.00 72 1008.7
20260510011524 65 168 0.0 0.9 0.00 0.00 0.00 71 1008.6
20260510011003 66 171 0.0 1.7 0.00 0.00 0.00 70 1008.5
20260510010503 66 172 0.0 1.7 0.00 0.00 0.00 69 1008.5
20260510010003 66 171 0.0 2.6 0.00 0.00 0.00 68 1008.4
20260510005503 67 170 0.9 2.6 0.00 0.00 0.00 67 1008.4
20260510005024 67 176 0.9 3.5 0.00 0.00 0.00 67 1008.4
20260510004503 67 185 0.9 3.5 0.00 0.00 0.00 66 1008.3
20260510004003 68 190 0.9 3.5 0.00 0.00 0.00 66 1008.3
20260510003524 68 193 1.7 3.5 0.00 0.00 0.00 65 1008.3
20260510003003 68 199 1.7 4.3 0.00 0.00 0.00 65 1008.1
20260510002503 69 203 1.7 4.3 0.00 0.00 0.00 64 1008.1
20260510002003 69 198 1.7 6.1 0.00 0.00 0.00 64 1008.1
20260510001503 70 191 1.7 6.1 0.00 0.00 0.00 63 1008.0
20260510001003 70 188 1.7 6.1 0.00 0.00 0.00 62 1008.0
20260510000524 70 191 1.7 6.1 0.00 0.00 0.00 62 1008.0
20260510000003 70 190 1.7 6.1 0.00 0.00 0.00 61 1008.0
20260509235503 71 193 1.7 6.1 0.00 0.00 0.00 61 1007.9
20260509235003 71 195 1.7 7.0 0.00 0.00 0.00 61 1007.9
20260509234503 72 192 2.6 7.0 0.00 0.00 0.00 60 1007.8
20260509234003 72 197 1.7 7.0 0.00 0.00 0.00 60 1007.8
20260509233503 72 200 1.7 6.1 0.00 0.00 0.00 59 1007.7
20260509233003 73 201 2.6 9.6 0.00 0.00 0.00 59 1007.8
20260509232503 73 198 2.6 9.6 0.00 0.00 0.00 57 1007.7
20260509232003 73 194 2.6 7.0 0.00 0.00 0.00 57 1007.7
20260509231503 74 195 2.6 7.0 0.00 0.00 0.00 56 1007.7
20260509231003 74 200 2.6 7.0 0.00 0.00 0.00 56 1007.6
20260509230503 74 207 2.6 7.8 0.00 0.00 0.00 55 1007.5
20260509230003 74 210 2.6 7.8 0.00 0.00 0.00 56 1007.6
20260509225503 74 183 2.6 7.8 0.00 0.00 0.00 56 1007.6
20260509225003 74 176 2.6 7.8 0.00 0.00 0.00 55 1007.6
20260509224503 75 199 1.7 7.8 0.00 0.00 0.00 54 1007.6
20260509224004 75 205 2.6 8.7 0.00 0.00 0.00 55 1007.6
20260509223503 75 212 2.6 8.7 0.00 0.00 0.00 52 1007.6
20260509223003 75 214 1.7 6.1 0.00 0.00 0.00 52 1007.6